This demonstration page uses our WeatherBlox Daily Observations layout. Learn more.

Left ArrowRight Arrow

44.31136, -96.79839

Hourly Observations for September 9, 2021

Temp ( °F °C ) Dew Point ( °F °C ) Humidity (%) Winds ( mph kmh ) Pressure ( in mb ) Visibility ( mi km ) Precip ( " mm )
12:56 am 00:56 Clear 52 11.1 47 8.3 83 83 Calm 30.11 1020 10 16 0.00 0.00
1:56 am 01:56 Clear 53 11.7 48 8.9 83 83 Calm 30.11 1020 10 16 0.00 0.00
2:56 am 02:56 Clear 48 8.9 46 7.8 93 93 Calm 30.11 1020 10 16 0.00 0.00
3:56 am 03:56 Clear 46 7.8 45 7.2 96 96 Calm 30.12 1020 10 16 0.00 0.00
4:56 am 04:56 Clear 45 7.2 44 6.7 97 97 Calm 30.13 1020 10 16 0.00 0.00
5:56 am 05:56 Clear 43 6.1 41 5 93 93 Calm 30.13 1020 10 16 0.00 0.00
6:25 am 06:25 Mostly Clear 43 6 43 6 100 100 Calm 30.13 1020 10 16 0.00 0.00
6:56 am 06:56 Mostly Clear 44 6.7 42 5.6 93 93 Calm 30.13 1020 10 16 0.00 0.00
7:56 am 07:56 Sunny 45 7.2 43 6.1 93 93 Calm 30.14 1021 9 14 0.00 0.00
8:56 am 08:56 Sunny 54 12.2 51 10.6 90 90 undefined N/A 30.13 1020 10 16 0.00 0.00
9:56 am 09:56 Sunny 62 16.7 53 11.7 73 73 VRB 3 6 30.13 1020 10 16 0.00 0.00
10:56 am 10:56 Sunny 67 19.4 52 11.1 59 59 Calm 30.12 1020 10 16 0.00 0.00
11:56 am 11:56 Sunny 71 21.7 52 11.1 51 51 S 6 9 30.10 1019 10 16 0.00 0.00
12:56 pm 12:56 Sunny 72 22.2 49 9.4 44 44 S 6 9 30.09 1019 10 16 0.00 0.00
1:56 pm 13:56 Sunny 73 22.8 49 9.4 43 43 SSW 5 7 30.06 1018 10 16 0.00 0.00
2:56 pm 14:56 Sunny 75 23.9 50 10 41 41 S 9 15 30.04 1017 10 16 0.00 0.00
3:56 pm 15:56 Sunny 75 23.9 50 10 41 41 SSE 12 19 30.02 1017 10 16 0.00 0.00
4:56 pm 16:56 Sunny 74 23.3 49 9.4 41 41 SSE 13 20 30.01 1016 10 16 0.00 0.00
5:56 pm 17:56 Sunny 73 22.8 51 10.6 46 46 SSE 13 20 30.00 1016 10 16 0.00 0.00
6:56 pm 18:56 Sunny 71 21.7 50 10 47 47 SSE 8 13 30.00 1016 10 16 0.00 0.00
7:56 pm 19:56 Clear 67 19.4 50 10 55 55 SE 8 13 30.01 1016 10 16 0.00 0.00
8:56 pm 20:56 Clear 64 17.8 51 10.6 63 63 SE 9 15 30.01 1016 10 16 0.00 0.00
9:56 pm 21:56 Clear 61 16.1 51 10.6 70 70 SE 10 17 30.01 1016 10 16 0.00 0.00
10:56 pm 22:56 Clear 61 16.1 51 10.6 70 70 SSE 10 17 30.01 1016 10 16 0.00 0.00
11:56 pm 23:56 Clear 57 13.9 51 10.6 81 81 SE 10 17 30.01 1016 10 16 0.00 0.00

Powered by AerisWeather